contact:dominique.lefevre@mio.osupytheas.fr, maurice.libes@osupytheas.fr, didier.mallarino@osupytheas.fr
Project:EMSO http://www.emso-fr.org/EMSO-France
Depth: 2436.0 m
Title:EMSO Ligure Ouest : Data MII capteur MICROCAT
DateTime_Computer,Latitude,Longitude,Temperature,Conductivity,Pressure,DateTime_Instrument
DateTime_Computer,Latitude,Longitude,degC,S m-1,dbar,DateTime_Instrument
2019-11-06T00:00:35Z,42.805,6.029,13.2953,4.59958,2469.923,2019-11-06T02:01:02Z
2019-11-06T00:03:38Z,42.805,6.029,13.2960,4.59957,2469.923,2019-11-06T02:04:05Z
2019-11-06T00:06:42Z,42.805,6.029,13.2965,4.59957,2469.96,2019-11-06T02:07:09Z
2019-11-06T00:09:45Z,42.805,6.029,13.2957,4.59957,2469.923,2019-11-06T02:10:12Z
2019-11-06T00:12:48Z,42.805,6.029,13.2957,4.59958,2469.9,2019-11-06T02:13:15Z
2019-11-06T00:15:51Z,42.805,6.029,13.2961,4.59959,2469.923,2019-11-06T02:16:18Z
2019-11-06T00:18:54Z,42.805,6.029,13.2959,4.59958,2469.923,2019-11-06T02:19:22Z
2019-11-06T00:21:58Z,42.805,6.029,13.2960,4.59958,2469.923,2019-11-06T02:22:25Z
2019-11-06T00:25:01Z,42.805,6.029,13.2961,4.59958,2469.937,2019-11-06T02:25:28Z
2019-11-06T00:28:04Z,42.805,6.029,13.2961,4.59958,2469.947,2019-11-06T02:28:31Z
2019-11-06T00:31:07Z,42.805,6.029,13.2957,4.59957,2469.923,2019-11-06T02:31:34Z
2019-11-06T00:34:11Z,42.805,6.029,13.2962,4.59960,2469.937,2019-11-06T02:34:38Z
2019-11-06T00:37:14Z,42.805,6.029,13.2957,4.59958,2469.937,2019-11-06T02:37:41Z
2019-11-06T00:40:17Z,42.805,6.029,13.2958,4.59958,2469.96,2019-11-06T02:40:44Z
2019-11-06T00:43:20Z,42.805,6.029,13.2962,4.59958,2469.96,2019-11-06T02:43:47Z
2019-11-06T00:46:23Z,42.805,6.029,13.2961,4.59958,2469.914,2019-11-06T02:46:50Z
2019-11-06T00:49:27Z,42.805,6.029,13.2958,4.59958,2469.97,2019-11-06T02:49:54Z
2019-11-06T00:52:30Z,42.805,6.029,13.2959,4.59958,2469.947,2019-11-06T02:52:57Z
2019-11-06T00:55:33Z,42.805,6.029,13.2962,4.59957,2469.937,2019-11-06T02:56:00Z
2019-11-06T00:58:36Z,42.805,6.029,13.2959,4.59958,2469.97,2019-11-06T02:59:03Z
2019-11-06T01:01:39Z,42.805,6.029,13.2962,4.59958,2469.96,2019-11-06T03:02:06Z
2019-11-06T01:04:43Z,42.805,6.029,13.2957,4.59957,2469.984,2019-11-06T03:05:10Z
2019-11-06T01:07:46Z,42.805,6.029,13.2960,4.59958,2469.984,2019-11-06T03:08:13Z
2019-11-06T01:10:49Z,42.805,6.029,13.2959,4.59960,2469.96,2019-11-06T03:11:16Z
2019-11-06T01:13:52Z,42.805,6.029,13.2962,4.59958,2469.97,2019-11-06T03:14:19Z
2019-11-06T01:16:56Z,42.805,6.029,13.2959,4.59958,2469.923,2019-11-06T03:17:23Z
2019-11-06T01:19:59Z,42.805,6.029,13.2962,4.59958,2469.937,2019-11-06T03:20:26Z
2019-11-06T01:23:02Z,42.805,6.029,13.2961,4.59958,2469.923,2019-11-06T03:23:29Z
2019-11-06T01:26:05Z,42.805,6.029,13.2961,4.59960,2469.923,2019-11-06T03:26:32Z
2019-11-06T01:29:09Z,42.805,6.029,13.2959,4.59958,2469.9,2019-11-06T03:29:36Z
2019-11-06T01:32:12Z,42.805,6.029,13.2960,4.59960,2469.96,2019-11-06T03:32:39Z
2019-11-06T01:35:15Z,42.805,6.029,13.2961,4.59961,2469.937,2019-11-06T03:35:42Z
2019-11-06T01:38:18Z,42.805,6.029,13.2962,4.59958,2469.947,2019-11-06T03:38:45Z
2019-11-06T01:41:21Z,42.805,6.029,13.2958,4.59961,2469.947,2019-11-06T03:41:48Z
2019-11-06T01:44:25Z,42.805,6.029,13.2965,4.59960,2469.96,2019-11-06T03:44:52Z
2019-11-06T01:47:28Z,42.805,6.029,13.2961,4.59958,2469.947,2019-11-06T03:47:55Z
2019-11-06T01:50:31Z,42.805,6.029,13.2959,4.59960,2469.947,2019-11-06T03:50:58Z
2019-11-06T01:53:34Z,42.805,6.029,13.2959,4.59961,2469.9,2019-11-06T03:54:01Z
2019-11-06T01:56:37Z,42.805,6.029,13.2960,4.59957,2469.96,2019-11-06T03:57:05Z
2019-11-06T01:59:41Z,42.805,6.029,13.2959,4.59957,2469.947,2019-11-06T04:00:08Z
2019-11-06T02:02:44Z,42.805,6.029,13.2959,4.59957,2469.984,2019-11-06T04:03:11Z
2019-11-06T02:05:47Z,42.805,6.029,13.2960,4.59958,2469.923,2019-11-06T04:06:14Z
2019-11-06T02:08:50Z,42.805,6.029,13.2960,4.59957,2469.97,2019-11-06T04:09:17Z
2019-11-06T02:11:53Z,42.805,6.029,13.2960,4.59957,2469.984,2019-11-06T04:12:20Z
2019-11-06T02:14:56Z,42.805,6.029,13.2962,4.59958,2469.96,2019-11-06T04:15:24Z
2019-11-06T02:18:00Z,42.805,6.029,13.2958,4.59957,2469.96,2019-11-06T04:18:27Z
2019-11-06T02:21:03Z,42.805,6.029,13.2959,4.59958,2469.984,2019-11-06T04:21:30Z
2019-11-06T02:24:06Z,42.805,6.029,13.2961,4.59957,2469.947,2019-11-06T04:24:33Z
2019-11-06T02:27:09Z,42.805,6.029,13.2963,4.59957,2469.947,2019-11-06T04:27:36Z
2019-11-06T02:30:12Z,42.805,6.029,13.2961,4.59957,2469.947,2019-11-06T04:30:39Z
2019-11-06T02:33:16Z,42.805,6.029,13.2961,4.59957,2469.96,2019-11-06T04:33:43Z
2019-11-06T02:36:19Z,42.805,6.029,13.2959,4.59957,2469.947,2019-11-06T04:36:46Z
2019-11-06T02:39:22Z,42.805,6.029,13.2958,4.59957,2469.96,2019-11-06T04:39:49Z
2019-11-06T02:42:25Z,42.805,6.029,13.2958,4.59957,2469.984,2019-11-06T04:42:52Z
2019-11-06T02:45:28Z,42.805,6.029,13.2959,4.59957,2469.923,2019-11-06T04:45:55Z
2019-11-06T02:48:32Z,42.805,6.029,13.2960,4.59958,2469.96,2019-11-06T04:48:59Z
2019-11-06T02:51:35Z,42.805,6.029,13.2960,4.59958,2469.947,2019-11-06T04:52:02Z
2019-11-06T02:54:38Z,42.805,6.029,13.2956,4.59960,2469.947,2019-11-06T04:55:05Z
2019-11-06T02:57:41Z,42.805,6.029,13.2960,4.59958,2469.96,2019-11-06T04:58:08Z
2019-11-06T03:00:44Z,42.805,6.029,13.2958,4.59958,2469.984,2019-11-06T05:01:11Z
2019-11-06T03:03:48Z,42.805,6.029,13.2958,4.59957,2469.947,2019-11-06T05:04:15Z
2019-11-06T03:06:51Z,42.805,6.029,13.2958,4.59958,2469.937,2019-11-06T05:07:18Z
2019-11-06T03:09:54Z,42.805,6.029,13.2963,4.59958,2469.97,2019-11-06T05:10:21Z
2019-11-06T03:12:57Z,42.805,6.029,13.2960,4.59956,2469.923,2019-11-06T05:13:24Z
2019-11-06T03:16:00Z,42.805,6.029,13.2958,4.59957,2469.947,2019-11-06T05:16:27Z
2019-11-06T03:19:04Z,42.805,6.029,13.2955,4.59958,2469.97,2019-11-06T05:19:31Z
2019-11-06T03:22:07Z,42.805,6.029,13.2962,4.59958,2469.97,2019-11-06T05:22:34Z
2019-11-06T03:25:10Z,42.805,6.029,13.2961,4.59957,2469.933,2019-11-06T05:25:37Z
2019-11-06T03:28:13Z,42.805,6.029,13.2959,4.59958,2469.984,2019-11-06T05:28:40Z
2019-11-06T03:31:16Z,42.805,6.029,13.2959,4.59957,2469.984,2019-11-06T05:31:44Z
2019-11-06T03:34:20Z,42.805,6.029,13.2958,4.59957,2469.984,2019-11-06T05:34:47Z
2019-11-06T03:37:23Z,42.805,6.029,13.2961,4.59958,2469.97,2019-11-06T05:37:50Z
2019-11-06T03:40:26Z,42.805,6.029,13.2959,4.59958,2469.97,2019-11-06T05:40:53Z
2019-11-06T03:43:29Z,42.805,6.029,13.2959,4.59957,2469.947,2019-11-06T05:43:56Z
2019-11-06T03:46:33Z,42.805,6.029,13.2961,4.59958,2469.947,2019-11-06T05:47:00Z
2019-11-06T03:49:36Z,42.805,6.029,13.2958,4.59958,2469.984,2019-11-06T05:50:03Z
2019-11-06T03:52:39Z,42.805,6.029,13.2957,4.59961,2469.947,2019-11-06T05:53:06Z
2019-11-06T03:55:42Z,42.805,6.029,13.2957,4.59958,2469.96,2019-11-06T05:56:09Z
2019-11-06T03:58:45Z,42.805,6.029,13.2958,4.59941,2469.956,2019-11-06T05:59:12Z
2019-11-06T04:01:49Z,42.805,6.029,13.2960,4.59957,2469.97,2019-11-06T06:02:16Z
2019-11-06T04:04:52Z,42.805,6.029,13.2962,4.59958,2469.937,2019-11-06T06:05:19Z
2019-11-06T04:07:55Z,42.805,6.029,13.2960,4.59957,2469.96,2019-11-06T06:08:22Z
2019-11-06T04:10:58Z,42.805,6.029,13.2958,4.59958,2469.984,2019-11-06T06:11:25Z
2019-11-06T04:14:01Z,42.805,6.029,13.2958,4.59957,2469.923,2019-11-06T06:14:29Z
2019-11-06T04:17:05Z,42.805,6.029,13.2961,4.59958,2469.97,2019-11-06T06:17:32Z
2019-11-06T04:20:08Z,42.805,6.029,13.2958,4.59959,2469.96,2019-11-06T06:20:35Z
2019-11-06T04:23:11Z,42.805,6.029,13.2961,4.59958,2469.96,2019-11-06T06:23:38Z
2019-11-06T04:26:14Z,42.805,6.029,13.2960,4.59957,2469.947,2019-11-06T06:26:41Z
2019-11-06T04:29:18Z,42.805,6.029,13.2961,4.59961,2469.984,2019-11-06T06:29:45Z
2019-11-06T04:32:21Z,42.805,6.029,13.2957,4.59958,2469.923,2019-11-06T06:32:48Z
2019-11-06T04:35:24Z,42.805,6.029,13.2961,4.59958,2469.96,2019-11-06T06:35:51Z
2019-11-06T04:38:27Z,42.805,6.029,13.2958,4.59958,2469.914,2019-11-06T06:38:54Z
2019-11-06T04:41:30Z,42.805,6.029,13.2958,4.59957,2469.937,2019-11-06T06:41:58Z
2019-11-06T04:44:34Z,42.805,6.029,13.2961,4.59962,2469.947,2019-11-06T06:45:01Z
2019-11-06T04:47:37Z,42.805,6.029,13.2959,4.59958,2469.923,2019-11-06T06:48:04Z
2019-11-06T04:50:40Z,42.805,6.029,13.2958,4.59959,2469.923,2019-11-06T06:51:07Z
2019-11-06T04:53:43Z,42.805,6.029,13.2963,4.59957,2469.937,2019-11-06T06:54:10Z
2019-11-06T04:56:46Z,42.805,6.029,13.2962,4.59962,2469.96,2019-11-06T06:57:13Z
2019-11-06T04:59:50Z,42.805,6.029,13.2960,4.59960,2469.96,2019-11-06T07:00:17Z
2019-11-06T05:02:53Z,42.805,6.029,13.2962,4.59958,2469.984,2019-11-06T07:03:20Z
2019-11-06T05:05:56Z,42.805,6.029,13.2958,4.59958,2469.923,2019-11-06T07:06:23Z
2019-11-06T05:08:59Z,42.805,6.029,13.2958,4.59958,2469.96,2019-11-06T07:09:26Z
2019-11-06T05:12:03Z,42.805,6.029,13.2959,4.59958,2469.96,2019-11-06T07:12:30Z
2019-11-06T05:15:06Z,42.805,6.029,13.2958,4.59958,2469.984,2019-11-06T07:15:33Z
2019-11-06T05:18:09Z,42.805,6.029,13.2956,4.59958,2469.96,2019-11-06T07:18:36Z
2019-11-06T05:21:12Z,42.805,6.029,13.2961,4.59958,2469.923,2019-11-06T07:21:39Z
2019-11-06T05:24:15Z,42.805,6.029,13.2957,4.59956,2469.947,2019-11-06T07:24:42Z
2019-11-06T05:27:19Z,42.805,6.029,13.2957,4.59957,2469.947,2019-11-06T07:27:46Z
2019-11-06T05:30:22Z,42.805,6.029,13.2957,4.59958,2469.947,2019-11-06T07:30:49Z
2019-11-06T05:33:25Z,42.805,6.029,13.2959,4.59958,2469.937,2019-11-06T07:33:52Z
2019-11-06T05:36:28Z,42.805,6.029,13.2958,4.59958,2469.96,2019-11-06T07:36:55Z
2019-11-06T05:39:31Z,42.805,6.029,13.2961,4.59958,2469.909,2019-11-06T07:39:58Z
2019-11-06T05:42:35Z,42.805,6.029,13.2958,4.59958,2469.947,2019-11-06T07:43:02Z
2019-11-06T05:45:38Z,42.805,6.029,13.2958,4.59958,2469.9,2019-11-06T07:46:05Z
2019-11-06T05:48:41Z,42.805,6.029,13.2960,4.59958,2469.947,2019-11-06T07:49:08Z
2019-11-06T05:51:44Z,42.805,6.029,13.2958,4.59961,2469.937,2019-11-06T07:52:11Z
2019-11-06T05:54:47Z,42.805,6.029,13.2959,4.59959,2469.923,2019-11-06T07:55:14Z
2019-11-06T05:57:51Z,42.805,6.029,13.2955,4.59958,2469.937,2019-11-06T07:58:18Z
2019-11-06T06:00:54Z,42.805,6.029,13.2958,4.59957,2469.947,2019-11-06T08:01:21Z
2019-11-06T06:03:57Z,42.805,6.029,13.2958,4.59956,2469.923,2019-11-06T08:04:24Z
2019-11-06T06:07:00Z,42.805,6.029,13.2957,4.59957,2469.923,2019-11-06T08:07:27Z
2019-11-06T06:10:03Z,42.805,6.029,13.2957,4.59958,2469.96,2019-11-06T08:10:30Z
2019-11-06T06:13:07Z,42.805,6.029,13.2962,4.59958,2469.96,2019-11-06T08:13:34Z
2019-11-06T06:16:10Z,42.805,6.029,13.2957,4.59961,2469.9,2019-11-06T08:16:37Z
2019-11-06T06:19:13Z,42.805,6.029,13.2958,4.59958,2469.923,2019-11-06T08:19:40Z
2019-11-06T06:22:17Z,42.805,6.029,13.2958,4.59958,2469.937,2019-11-06T08:22:44Z
2019-11-06T06:25:20Z,42.805,6.029,13.2960,4.59958,2469.96,2019-11-06T08:25:47Z
2019-11-06T06:28:23Z,42.805,6.029,13.2957,4.59963,2469.937,2019-11-06T08:28:50Z
2019-11-06T06:31:26Z,42.805,6.029,13.2962,4.59960,2469.937,2019-11-06T08:31:53Z
2019-11-06T06:34:29Z,42.805,6.029,13.2959,4.59960,2469.96,2019-11-06T08:34:56Z
2019-11-06T06:37:33Z,42.805,6.029,13.2961,4.59964,2469.97,2019-11-06T08:38:00Z
2019-11-06T06:40:36Z,42.805,6.029,13.2957,4.59961,2469.937,2019-11-06T08:41:03Z
2019-11-06T06:43:39Z,42.805,6.029,13.2961,4.59961,2469.937,2019-11-06T08:44:06Z
2019-11-06T06:46:42Z,42.805,6.029,13.2971,4.59966,2469.96,2019-11-06T08:47:09Z
2019-11-06T06:49:45Z,42.805,6.029,13.2962,4.59962,2469.886,2019-11-06T08:50:12Z
2019-11-06T06:52:49Z,42.805,6.029,13.2959,4.59958,2469.937,2019-11-06T08:53:16Z
2019-11-06T06:55:52Z,42.805,6.029,13.2958,4.59958,2469.914,2019-11-06T08:56:19Z
2019-11-06T06:58:55Z,42.805,6.029,13.2958,4.59961,2469.9,2019-11-06T08:59:22Z
2019-11-06T07:01:58Z,42.805,6.029,13.2958,4.59958,2469.937,2019-11-06T09:02:25Z
2019-11-06T07:05:01Z,42.805,6.029,13.2959,4.59958,2469.923,2019-11-06T09:05:28Z
2019-11-06T07:08:05Z,42.805,6.029,13.2958,4.59963,2469.937,2019-11-06T09:08:32Z
2019-11-06T07:11:08Z,42.805,6.029,13.2957,4.59961,2469.937,2019-11-06T09:11:35Z
2019-11-06T07:14:11Z,42.805,6.029,13.2959,4.59961,2469.9,2019-11-06T09:14:38Z
2019-11-06T07:17:14Z,42.805,6.029,13.2957,4.59958,2469.923,2019-11-06T09:17:41Z
2019-11-06T07:20:17Z,42.805,6.029,13.2957,4.59958,2469.923,2019-11-06T09:20:44Z
2019-11-06T07:23:21Z,42.805,6.029,13.2961,4.59959,2469.89,2019-11-06T09:23:48Z
2019-11-06T07:26:24Z,42.805,6.029,13.2957,4.59970,2469.9,2019-11-06T09:26:51Z
2019-11-06T07:29:27Z,42.805,6.029,13.2963,4.59961,2469.937,2019-11-06T09:29:54Z
2019-11-06T07:32:30Z,42.805,6.029,13.2957,4.59960,2469.937,2019-11-06T09:32:58Z
2019-11-06T07:35:34Z,42.805,6.029,13.2957,4.59958,2469.96,2019-11-06T09:36:01Z
2019-11-06T07:38:37Z,42.805,6.029,13.2959,4.59958,2469.923,2019-11-06T09:39:04Z
2019-11-06T07:41:40Z,42.805,6.029,13.2958,4.59958,2469.937,2019-11-06T09:42:07Z
2019-11-06T07:44:43Z,42.805,6.029,13.2956,4.59961,2469.96,2019-11-06T09:45:10Z
2019-11-06T07:47:47Z,42.805,6.029,13.2959,4.59963,2469.937,2019-11-06T09:48:14Z
2019-11-06T07:50:50Z,42.805,6.029,13.2958,4.59958,2469.9,2019-11-06T09:51:17Z
2019-11-06T07:53:53Z,42.805,6.029,13.2960,4.59958,2469.923,2019-11-06T09:54:20Z
2019-11-06T07:56:56Z,42.805,6.029,13.2958,4.59961,2469.923,2019-11-06T09:57:23Z
2019-11-06T07:59:59Z,42.805,6.029,13.2962,4.59958,2469.96,2019-11-06T10:00:26Z
2019-11-06T08:03:03Z,42.805,6.029,13.2959,4.59966,2469.9,2019-11-06T10:03:30Z
2019-11-06T08:06:06Z,42.805,6.029,13.2957,4.59964,2469.923,2019-11-06T10:06:33Z
2019-11-06T08:09:09Z,42.805,6.029,13.2959,4.59962,2469.9,2019-11-06T10:09:36Z
2019-11-06T08:12:12Z,42.805,6.029,13.2961,4.59964,2469.923,2019-11-06T10:12:39Z
2019-11-06T08:15:16Z,42.805,6.029,13.2980,4.60008,2469.923,2019-11-06T10:15:43Z
2019-11-06T08:18:19Z,42.805,6.029,13.2986,4.59996,2469.914,2019-11-06T10:18:46Z
2019-11-06T08:21:22Z,42.805,6.029,13.2996,4.59968,2469.923,2019-11-06T10:21:49Z
2019-11-06T08:24:25Z,42.805,6.029,13.2955,4.59962,2469.937,2019-11-06T10:24:52Z
2019-11-06T08:27:29Z,42.805,6.029,13.2971,4.59973,2469.937,2019-11-06T10:27:56Z
2019-11-06T08:30:32Z,42.805,6.029,13.2986,4.59968,2469.937,2019-11-06T10:30:59Z
2019-11-06T08:33:35Z,42.805,6.029,13.2961,4.59979,2469.923,2019-11-06T10:34:02Z
2019-11-06T08:36:38Z,42.805,6.029,13.2966,4.59975,2469.923,2019-11-06T10:37:05Z
2019-11-06T08:39:42Z,42.805,6.029,13.2993,4.59988,2469.937,2019-11-06T10:40:09Z
2019-11-06T08:42:45Z,42.805,6.029,13.2988,4.59968,2469.923,2019-11-06T10:43:12Z
2019-11-06T08:45:48Z,42.805,6.029,13.2994,4.60001,2469.937,2019-11-06T10:46:15Z
2019-11-06T08:48:51Z,42.805,6.029,13.3021,4.60044,2469.9,2019-11-06T10:49:18Z
2019-11-06T08:51:54Z,42.805,6.029,13.3011,4.59972,2469.923,2019-11-06T10:52:22Z
2019-11-06T08:54:58Z,42.805,6.029,13.3014,4.60035,2469.923,2019-11-06T10:55:25Z
2019-11-06T08:58:01Z,42.805,6.029,13.3020,4.60019,2469.9,2019-11-06T10:58:28Z
2019-11-06T09:01:04Z,42.805,6.029,13.3039,4.60005,2469.937,2019-11-06T11:01:31Z
2019-11-06T09:04:08Z,42.805,6.029,13.3029,4.59996,2469.9,2019-11-06T11:04:35Z
2019-11-06T09:07:11Z,42.805,6.029,13.2982,4.60026,2469.947,2019-11-06T11:07:38Z
2019-11-06T09:10:14Z,42.805,6.029,13.2982,4.59985,2469.937,2019-11-06T11:10:41Z
2019-11-06T09:13:17Z,42.805,6.029,13.2979,4.59966,2469.937,2019-11-06T11:13:44Z
2019-11-06T09:16:20Z,42.805,6.029,13.2971,4.59967,2469.937,2019-11-06T11:16:48Z
2019-11-06T09:19:24Z,42.805,6.029,13.2967,4.59981,2469.937,2019-11-06T11:19:51Z
2019-11-06T09:22:27Z,42.805,6.029,13.2977,4.59991,2469.923,2019-11-06T11:22:54Z
2019-11-06T09:25:30Z,42.805,6.029,13.3015,4.59980,2469.923,2019-11-06T11:25:57Z
2019-11-06T09:28:33Z,42.805,6.029,13.2978,4.60019,2469.937,2019-11-06T11:29:00Z
2019-11-06T09:31:37Z,42.805,6.029,13.2960,4.60038,2469.937,2019-11-06T11:32:04Z
2019-11-06T09:34:40Z,42.805,6.029,13.2956,4.60034,2469.923,2019-11-06T11:35:07Z
2019-11-06T09:37:43Z,42.805,6.029,13.2971,4.60028,2469.937,2019-11-06T11:38:10Z
2019-11-06T09:40:46Z,42.805,6.029,13.2978,4.60006,2469.947,2019-11-06T11:41:13Z
2019-11-06T09:43:49Z,42.805,6.029,13.3007,4.60007,2469.923,2019-11-06T11:44:17Z
2019-11-06T09:46:53Z,42.805,6.029,13.3088,4.60046,2469.914,2019-11-06T11:47:20Z
2019-11-06T09:49:56Z,42.805,6.029,13.3048,4.60009,2469.923,2019-11-06T11:50:23Z
2019-11-06T09:52:59Z,42.805,6.029,13.3029,4.59999,2469.923,2019-11-06T11:53:26Z
2019-11-06T09:56:02Z,42.805,6.029,13.3048,4.60001,2469.937,2019-11-06T11:56:30Z
2019-11-06T09:59:06Z,42.805,6.029,13.3039,4.60061,2469.937,2019-11-06T11:59:33Z
2019-11-06T10:02:09Z,42.805,6.029,13.3020,4.60059,2469.923,2019-11-06T12:02:36Z
2019-11-06T10:05:12Z,42.805,6.029,13.3050,4.60026,2469.984,2019-11-06T12:05:39Z
2019-11-06T10:08:15Z,42.805,6.029,13.3009,4.60037,2469.96,2019-11-06T12:08:43Z
2019-11-06T10:11:19Z,42.805,6.029,13.2957,4.60067,2469.96,2019-11-06T12:11:46Z
2019-11-06T10:14:22Z,42.805,6.029,13.2964,4.60069,2469.937,2019-11-06T12:14:49Z
2019-11-06T10:17:25Z,42.805,6.029,13.2967,4.60103,2469.923,2019-11-06T12:17:52Z
2019-11-06T10:20:28Z,42.805,6.029,13.2985,4.60066,2469.937,2019-11-06T12:20:55Z
2019-11-06T10:23:32Z,42.805,6.029,13.2961,4.60101,2469.937,2019-11-06T12:23:59Z
2019-11-06T10:26:35Z,42.805,6.029,13.2960,4.60027,2469.947,2019-11-06T12:27:02Z
2019-11-06T10:29:38Z,42.805,6.029,13.2958,4.59990,2469.96,2019-11-06T12:30:05Z
2019-11-06T10:32:41Z,42.805,6.029,13.2954,4.59985,2469.937,2019-11-06T12:33:08Z
2019-11-06T10:35:45Z,42.805,6.029,13.2956,4.59983,2469.984,2019-11-06T12:36:12Z
2019-11-06T10:38:48Z,42.805,6.029,13.2954,4.59976,2469.947,2019-11-06T12:39:15Z
2019-11-06T10:41:51Z,42.805,6.029,13.2958,4.59992,2469.96,2019-11-06T12:42:18Z
2019-11-06T10:44:54Z,42.805,6.029,13.2958,4.59979,2469.937,2019-11-06T12:45:21Z
2019-11-06T10:47:58Z,42.805,6.029,13.2955,4.59983,2469.947,2019-11-06T12:48:25Z
2019-11-06T10:51:01Z,42.805,6.029,13.2959,4.59976,2469.984,2019-11-06T12:51:28Z
2019-11-06T10:54:04Z,42.805,6.029,13.2958,4.59980,2469.97,2019-11-06T12:54:31Z
2019-11-06T10:57:07Z,42.805,6.029,13.2958,4.59977,2469.947,2019-11-06T12:57:34Z
2019-11-06T11:00:10Z,42.805,6.029,13.2957,4.59968,2469.96,2019-11-06T13:00:37Z
2019-11-06T11:03:14Z,42.805,6.029,13.2957,4.59968,2469.984,2019-11-06T13:03:41Z
2019-11-06T11:06:17Z,42.805,6.029,13.2955,4.59967,2469.923,2019-11-06T13:06:44Z
2019-11-06T11:09:20Z,42.805,6.029,13.2953,4.59966,2469.96,2019-11-06T13:09:47Z
2019-11-06T11:12:23Z,42.805,6.029,13.2954,4.59966,2469.947,2019-11-06T13:12:50Z
2019-11-06T11:15:26Z,42.805,6.029,13.2957,4.59966,2469.947,2019-11-06T13:15:53Z
2019-11-06T11:18:30Z,42.805,6.029,13.2953,4.59968,2469.947,2019-11-06T13:18:57Z
2019-11-06T11:21:33Z,42.805,6.029,13.2956,4.59972,2469.947,2019-11-06T13:22:00Z
2019-11-06T11:24:36Z,42.805,6.029,13.2956,4.59969,2469.96,2019-11-06T13:25:03Z
2019-11-06T11:27:39Z,42.805,6.029,13.2957,4.59971,2469.97,2019-11-06T13:28:06Z
2019-11-06T11:30:42Z,42.805,6.029,13.2958,4.59968,2469.96,2019-11-06T13:31:10Z
2019-11-06T11:33:46Z,42.805,6.029,13.2956,4.59981,2469.993,2019-11-06T13:34:13Z
2019-11-06T11:36:49Z,42.805,6.029,13.2957,4.59981,2469.984,2019-11-06T13:37:16Z
2019-11-06T11:39:52Z,42.805,6.029,13.2959,4.59971,2469.947,2019-11-06T13:40:19Z
2019-11-06T11:42:55Z,42.805,6.029,13.2955,4.59969,2469.947,2019-11-06T13:43:22Z
2019-11-06T11:45:59Z,42.805,6.029,13.2958,4.59966,2469.984,2019-11-06T13:46:26Z
2019-11-06T11:49:02Z,42.805,6.029,13.2960,4.59964,2469.923,2019-11-06T13:49:29Z
2019-11-06T11:52:05Z,42.805,6.029,13.2958,4.59966,2470.007,2019-11-06T13:52:32Z
2019-11-06T11:55:08Z,42.805,6.029,13.2958,4.59964,2469.97,2019-11-06T13:55:35Z
2019-11-06T11:58:11Z,42.805,6.029,13.2958,4.59966,2469.97,2019-11-06T13:58:38Z
2019-11-06T12:01:15Z,42.805,6.029,13.2955,4.59966,2469.97,2019-11-06T14:01:42Z
2019-11-06T12:04:18Z,42.805,6.029,13.2955,4.59967,2469.97,2019-11-06T14:04:45Z
2019-11-06T12:07:21Z,42.805,6.029,13.2957,4.59963,2469.993,2019-11-06T14:07:48Z
2019-11-06T12:10:24Z,42.805,6.029,13.2961,4.59962,2469.947,2019-11-06T14:10:51Z
2019-11-06T12:13:27Z,42.805,6.029,13.2960,4.59962,2469.947,2019-11-06T14:13:55Z
2019-11-06T12:16:31Z,42.805,6.029,13.2958,4.59966,2469.97,2019-11-06T14:16:58Z
2019-11-06T12:19:34Z,42.805,6.029,13.2957,4.59961,2470.007,2019-11-06T14:20:01Z
2019-11-06T12:22:37Z,42.805,6.029,13.2957,4.59961,2469.97,2019-11-06T14:23:04Z
2019-11-06T12:25:40Z,42.805,6.029,13.2958,4.59961,2469.97,2019-11-06T14:26:08Z
2019-11-06T12:28:44Z,42.805,6.029,13.2958,4.59961,2470.007,2019-11-06T14:29:11Z
2019-11-06T12:31:47Z,42.805,6.029,13.2958,4.59961,2469.993,2019-11-06T14:32:14Z
2019-11-06T12:34:50Z,42.805,6.029,13.2958,4.59961,2470.03,2019-11-06T14:35:17Z
2019-11-06T12:37:54Z,42.805,6.029,13.2956,4.59960,2469.993,2019-11-06T14:38:21Z
2019-11-06T12:40:57Z,42.805,6.029,13.2958,4.59961,2469.96,2019-11-06T14:41:24Z
2019-11-06T12:44:00Z,42.805,6.029,13.2954,4.59960,2470.017,2019-11-06T14:44:27Z
2019-11-06T12:47:03Z,42.805,6.029,13.2960,4.59960,2469.993,2019-11-06T14:47:30Z
2019-11-06T12:50:07Z,42.805,6.029,13.2958,4.59959,2470.03,2019-11-06T14:50:34Z
2019-11-06T12:53:10Z,42.805,6.029,13.2957,4.59961,2469.993,2019-11-06T14:53:37Z
2019-11-06T12:56:13Z,42.805,6.029,13.2961,4.59960,2469.993,2019-11-06T14:56:40Z
2019-11-06T12:59:16Z,42.805,6.029,13.2959,4.59959,2470.007,2019-11-06T14:59:43Z
2019-11-06T13:02:20Z,42.805,6.029,13.2960,4.59961,2469.97,2019-11-06T15:02:47Z
2019-11-06T13:05:23Z,42.805,6.029,13.2958,4.59961,2470.017,2019-11-06T15:05:50Z
2019-11-06T13:08:26Z,42.805,6.029,13.2958,4.59961,2470.017,2019-11-06T15:08:53Z
2019-11-06T13:11:29Z,42.805,6.029,13.2961,4.59961,2470.04,2019-11-06T15:11:56Z
2019-11-06T13:14:32Z,42.805,6.029,13.2958,4.59961,2470.017,2019-11-06T15:15:00Z
2019-11-06T13:17:36Z,42.805,6.029,13.2957,4.59960,2469.984,2019-11-06T15:18:03Z
2019-11-06T13:20:39Z,42.805,6.029,13.2957,4.59961,2470.017,2019-11-06T15:21:06Z
2019-11-06T13:23:42Z,42.805,6.029,13.2959,4.59961,2470.03,2019-11-06T15:24:09Z
2019-11-06T13:26:45Z,42.805,6.029,13.2957,4.59961,2470.007,2019-11-06T15:27:12Z
2019-11-06T13:29:48Z,42.805,6.029,13.2959,4.59961,2470.017,2019-11-06T15:30:16Z
2019-11-06T13:32:52Z,42.805,6.029,13.2957,4.59963,2470.017,2019-11-06T15:33:19Z
2019-11-06T13:35:55Z,42.805,6.029,13.2959,4.59961,2470.017,2019-11-06T15:36:22Z
2019-11-06T13:38:58Z,42.805,6.029,13.2964,4.59961,2470.017,2019-11-06T15:39:25Z
2019-11-06T13:42:01Z,42.805,6.029,13.2961,4.59961,2470.04,2019-11-06T15:42:28Z
2019-11-06T13:45:05Z,42.805,6.029,13.2953,4.59961,2469.993,2019-11-06T15:45:32Z
2019-11-06T13:48:08Z,42.805,6.029,13.2959,4.59960,2470.03,2019-11-06T15:48:35Z
2019-11-06T13:51:11Z,42.805,6.029,13.2961,4.59961,2470.017,2019-11-06T15:51:38Z
2019-11-06T13:54:14Z,42.805,6.029,13.2958,4.59960,2470.003,2019-11-06T15:54:41Z
2019-11-06T13:57:17Z,42.805,6.029,13.2959,4.59960,2469.993,2019-11-06T15:57:44Z
2019-11-06T14:00:21Z,42.805,6.029,13.2957,4.59961,2470.017,2019-11-06T16:00:48Z
2019-11-06T14:03:24Z,42.805,6.029,13.2957,4.59960,2470.017,2019-11-06T16:03:51Z
2019-11-06T14:06:27Z,42.805,6.029,13.2959,4.59960,2470.003,2019-11-06T16:06:54Z
2019-11-06T14:09:30Z,42.805,6.029,13.2960,4.59960,2470.017,2019-11-06T16:09:57Z
2019-11-06T14:12:33Z,42.805,6.029,13.2955,4.59961,2470.03,2019-11-06T16:13:01Z
2019-11-06T14:15:37Z,42.805,6.029,13.2958,4.59961,2470.03,2019-11-06T16:16:04Z
2019-11-06T14:18:40Z,42.805,6.029,13.2958,4.59960,2470.053,2019-11-06T16:19:07Z
2019-11-06T14:21:43Z,42.805,6.029,13.2960,4.59959,2470.017,2019-11-06T16:22:10Z
2019-11-06T14:24:46Z,42.805,6.029,13.2963,4.59960,2469.993,2019-11-06T16:25:13Z
2019-11-06T14:27:50Z,42.805,6.029,13.2956,4.59960,2470.017,2019-11-06T16:28:17Z
2019-11-06T14:30:53Z,42.805,6.029,13.2958,4.59960,2470.04,2019-11-06T16:31:20Z
2019-11-06T14:33:56Z,42.805,6.029,13.2959,4.59961,2470.04,2019-11-06T16:34:23Z
2019-11-06T14:36:59Z,42.805,6.029,13.2958,4.59960,2470.04,2019-11-06T16:37:27Z
2019-11-06T14:40:03Z,42.805,6.029,13.2957,4.59958,2470.017,2019-11-06T16:40:30Z
2019-11-06T14:43:06Z,42.805,6.029,13.2960,4.59959,2470.04,2019-11-06T16:43:33Z
2019-11-06T14:46:09Z,42.805,6.029,13.2957,4.59958,2470.04,2019-11-06T16:46:36Z
2019-11-06T14:49:12Z,42.805,6.029,13.2960,4.59958,2470.077,2019-11-06T16:49:39Z
2019-11-06T14:52:16Z,42.805,6.029,13.2962,4.59958,2470.03,2019-11-06T16:52:43Z
2019-11-06T14:55:19Z,42.805,6.029,13.2957,4.59957,2470.053,2019-11-06T16:55:46Z
2019-11-06T14:58:22Z,42.805,6.029,13.2959,4.59957,2470.017,2019-11-06T16:58:49Z
2019-11-06T15:01:25Z,42.805,6.029,13.2958,4.59957,2470.04,2019-11-06T17:01:52Z